Weather History for Seattle Boeing, WA

Change the Weather History Date:

Sunday, February 17, 2013

  Actual Average Record
Temperature  
Mean Temperature 44 °F -  
Max Temperature 46 °F 48 °F 59 °F (2007)
Min Temperature 42 °F 37 °F 23 °F (1990)
Degree Days  
Heating Degree Days 21    
Moisture  
Dew Point 35 °F    
Average Humidity 70    
Maximum Humidity 81    
Minimum Humidity 54    
Precipitation  
Precipitation 0.00 in - - ()
Sea Level Pressure  
Sea Level Pressure 30.20 in    
Wind  
Wind Speed 7 mph (SSE)    
Max Wind Speed 10 mph    
Max Gust Speed -    
Visibility 10 miles    
Events      
Averages and records for this station are not official NWS values.
T = Trace of Precipitation, MM = Missing Value Source: NWS Daily Summary

Daily Weather History Graph

Daily Weather History Graph

Search for Another Location

Airport:

Trip Planner

Search our weather history database for the weather conditions in past years. The results will help you decide how hot, cold, wet, or windy it might be!

Date:

Astronomy

Feb. 17, 2013 Rise Set
Actual Time 7:10 AM PST 5:36 PM PST
Civil Twilight 6:39 AM PST 6:07 PM PST
Nautical Twilight 6:03 AM PST 6:43 PM PST
Astronomical Twilight 5:27 AM PST 7:19 PM PST
Moon 10:34 AM PST (2/17) 1:09 AM PST (2/17)
Length of Visible Light 11h 28m
Length of Day
10h 25m
Waxing Crescent, 50% of the Moon is Illuminated
Feb 17
Waxing Crescent
Feb 17
First Quarter
Feb 25
Full
Mar 4
Last Quarter
Mar 11
New

Hourly Weather History & Observations

Time (PST) Temp. Windchill Dew Point Humidity Pressure Visibility Wind Dir Wind Speed Gust Speed Precip Events Conditions
12:03 AM 42.8 °F 38.0 °F 35.6 °F 76% 30.21 in 10.0 mi SSE 8.1 mph - N/A   Mostly Cloudy
12:53 AM 42.1 °F 36.1 °F 35.1 °F 76% 30.22 in 10.0 mi SE 10.4 mph - N/A   Overcast
1:53 AM 43.0 °F 37.2 °F 35.1 °F 74% 30.23 in 10.0 mi SE 10.4 mph - N/A   Overcast
2:53 AM 43.0 °F 38.2 °F 35.1 °F 74% 30.23 in 10.0 mi SSE 8.1 mph - N/A   Overcast
3:53 AM 43.0 °F 38.8 °F 34.0 °F 71% 30.23 in 10.0 mi South 6.9 mph - N/A   Overcast
4:53 AM 42.1 °F 37.1 °F 34.0 °F 73% 30.23 in 10.0 mi SSE 8.1 mph - N/A   Overcast
5:53 AM 42.1 °F 37.7 °F 34.0 °F 73% 30.24 in 10.0 mi SSE 6.9 mph - N/A   Overcast
6:53 AM 42.1 °F 36.6 °F 34.0 °F 73% 30.22 in 10.0 mi SSE 9.2 mph - N/A   Overcast
7:53 AM 42.1 °F 36.6 °F 34.0 °F 73% 30.23 in 10.0 mi SSE 9.2 mph - N/A   Overcast
8:53 AM 42.1 °F 37.7 °F 34.0 °F 73% 30.25 in 10.0 mi SSE 6.9 mph - N/A   Overcast
9:53 AM 43.0 °F 37.2 °F 34.0 °F 71% 30.25 in 10.0 mi SSE 10.4 mph - N/A   Overcast
10:53 AM 43.0 °F 39.5 °F 34.0 °F 71% 30.25 in 10.0 mi SSW 5.8 mph - N/A   Overcast
11:53 AM 45.0 °F 43.5 °F 36.0 °F 71% 30.24 in 10.0 mi WSW 3.5 mph - N/A   Overcast
12:14 PM 46.4 °F 44.3 °F 35.6 °F 66% 30.23 in 10.0 mi West 4.6 mph - N/A   Overcast
12:53 PM 46.9 °F - 34.0 °F 61% 30.22 in 10.0 mi SSW 5.8 mph - N/A   Overcast
1:53 PM 46.9 °F - 33.1 °F 59% 30.21 in 10.0 mi Calm Calm - N/A   Overcast
2:53 PM 46.0 °F 42.5 °F 35.1 °F 66% 30.21 in 10.0 mi West 6.9 mph - N/A   Mostly Cloudy
3:53 PM 46.9 °F - 33.1 °F 59% 30.19 in 10.0 mi Calm Calm - N/A   Mostly Cloudy
4:53 PM 46.9 °F - 32.0 °F 56% 30.17 in 10.0 mi Calm Calm - N/A   Mostly Cloudy
5:53 PM 46.9 °F - 30.9 °F 54% 30.17 in 10.0 mi Calm Calm - N/A   Overcast
6:53 PM 46.0 °F - 34.0 °F 63% 30.17 in 10.0 mi Calm Calm - N/A   Overcast
7:53 PM 45.0 °F - 37.9 °F 76% 30.16 in 10.0 mi Calm Calm - 0.00 in   Overcast
9:53 PM 44.1 °F 42.5 °F 37.0 °F 76% 30.15 in 10.0 mi ESE 3.5 mph - N/A   Scattered Clouds
10:53 PM 43.0 °F - 37.0 °F 80% 30.14 in 10.0 mi Calm Calm - N/A   Overcast
11:18 PM 42.8 °F 39.3 °F 37.4 °F 81% 30.13 in 10.0 mi SSE 5.8 mph - N/A   Overcast
11:53 PM 43.0 °F 41.3 °F 37.0 °F 80% 30.12 in 10.0 mi ENE 3.5 mph - 0.00 in   Overcast